Location: Franzen
(48.6167°N, 15.3833°E)
Time: 08:27:41
(UTC+00:00)

Cosmos 1709 Rocket - Pass Details

Date: 31 July 2021
Orbit: 947 x 1002 km, 82.9° (Epoch: 18 September)

Event Time Altitude Azimuth Distance (km) Brightness Sun altitude
Exits shadow 21:20:49 10° 97° (E) 2,766 6.1 -19.4°
Reaches altitude 10° 21:20:50 10° 97° (E) 2,764 6.1 -19.4°
Maximum altitude 21:23:12 12° 74° (ENE) 2,602 6.1 -19.6°
Drops below altitude 10° 21:25:36 10° 52° (NE) 2,779 6.5 -19.8°
Sets 21:29:53 0° 25° (NNE) 3,739 7.7 -20.1°
